User: anonymous   Login
Location: ????????
(55.1591°N, 39.1782°E)
Time: 02:42:50
(UTC+00:00)
Language:

EO 1 Delta rocket - Orbit

View from above orbital plane
View from above orbital plane
View from above satellite
View from above satellite

Ground track
Ground track

The orbit data is extracted from the following two-line orbital elements,

1 26622U 00075D   24174.41619811  .00000315  00000-0  29730-3 0  9992
2 26622  95.4357 102.3900 0715239 313.9768 162.9969 13.04772198122742
Epoch (UTC): 22 June 2024 09:59:19
Eccentricity: 0.0715239
inclination: 95.4357°
perigee height: 698 km
apogee height: 1788 km
right ascension of ascending node: 102.3900°
argument of perigee: 313.9768°
revolutions per day: 13.04772198
mean anomaly at epoch: 162.9969°
orbit number at epoch: 12274

The dashed part of the orbit path shows where the satellite is in the earth's shadow,  

DLR